| time (UTC) | temp F | wind direction | speed MPH | gust MPH | rain 1hr in | rain 24hr in | rain mn in | humidity % | barometer mb |
| 20260508035823 | 48 | 333 | 2.0 | 4.0 | 0.00 | 0.14 | 0.14 | 75 | 1008.7 |
| 20260508035319 | 48 | 314 | 2.0 | 4.0 | 0.00 | 0.14 | 0.14 | 75 | 1008.7 |
| 20260508034820 | 48 | 316 | 2.0 | 3.0 | 0.00 | 0.14 | 0.14 | 75 | 1008.7 |
| 20260508034316 | 48 | 344 | 0.0 | 1.0 | 0.00 | 0.14 | 0.14 | 76 | 1008.6 |
| 20260508033812 | 48 | 320 | 0.0 | 0.0 | 0.00 | 0.14 | 0.14 | 75 | 1008.6 |
| 20260508033329 | 48 | 320 | 0.0 | 0.0 | 0.00 | 0.14 | 0.14 | 73 | 1008.5 |
| 20260508032824 | 48 | 320 | 0.0 | 0.0 | 0.00 | 0.14 | 0.14 | 72 | 1008.6 |
| 20260508032320 | 48 | 320 | 0.0 | 0.0 | 0.00 | 0.14 | 0.14 | 72 | 1008.7 |
| 20260508031817 | 48 | 320 | 0.0 | 0.0 | 0.00 | 0.14 | 0.14 | 72 | 1008.9 |
| 20260508031317 | 48 | 320 | 0.0 | 0.0 | 0.00 | 0.14 | 0.14 | 73 | 1008.8 |
| 20260508030813 | 48 | 320 | 0.0 | 0.0 | 0.00 | 0.14 | 0.14 | 72 | 1008.8 |
| 20260508030330 | 48 | 320 | 0.0 | 0.0 | 0.00 | 0.14 | 0.14 | 73 | 1008.8 |
| 20260508025826 | 48 | 320 | 0.0 | 0.0 | 0.00 | 0.14 | 0.14 | 71 | 1008.9 |
| 20260508025323 | 48 | 320 | 0.0 | 0.0 | 0.00 | 0.14 | 0.14 | 70 | 1009.0 |
| 20260508024819 | 48 | 320 | 0.0 | 0.0 | 0.00 | 0.14 | 0.14 | 70 | 1008.9 |
| 20260508024314 | 48 | 320 | 0.0 | 0.0 | 0.00 | 0.14 | 0.14 | 69 | 1009.0 |
| 20260508023814 | 48 | 320 | 0.0 | 0.0 | 0.00 | 0.14 | 0.14 | 69 | 1009.0 |
| 20260508023311 | 48 | 320 | 0.0 | 0.0 | 0.00 | 0.14 | 0.14 | 69 | 1009.0 |
| 20260508022827 | 48 | 320 | 0.0 | 0.0 | 0.00 | 0.14 | 0.14 | 69 | 1009.0 |
| 20260508022324 | 49 | 320 | 0.0 | 0.0 | 0.00 | 0.14 | 0.14 | 67 | 1008.9 |
| 20260508021819 | 49 | 320 | 0.0 | 0.0 | 0.00 | 0.14 | 0.14 | 67 | 1008.9 |
| 20260508021314 | 50 | 320 | 0.0 | 0.0 | 0.00 | 0.14 | 0.14 | 65 | 1009.0 |
| 20260508020830 | 50 | 320 | 0.0 | 0.0 | 0.00 | 0.14 | 0.14 | 65 | 1009.0 |
| 20260508020311 | 51 | 320 | 0.0 | 3.0 | 0.00 | 0.14 | 0.14 | 62 | 1009.0 |
| 20260508015827 | 51 | 325 | 0.0 | 3.0 | 0.00 | 0.15 | 0.14 | 63 | 1008.8 |
| 20260508015324 | 51 | 342 | 1.0 | 4.0 | 0.00 | 0.15 | 0.14 | 63 | 1008.9 |
| 20260508014820 | 51 | 333 | 1.0 | 3.0 | 0.00 | 0.15 | 0.14 | 63 | 1008.8 |
| 20260508014315 | 51 | 321 | 1.0 | 2.0 | 0.00 | 0.15 | 0.14 | 63 | 1008.7 |
| 20260508013811 | 51 | 355 | 0.0 | 2.0 | 0.00 | 0.15 | 0.14 | 61 | 1008.7 |
| 20260508013328 | 51 | 355 | 0.0 | 0.0 | 0.00 | 0.15 | 0.14 | 60 | 1008.6 |
| 20260508012824 | 51 | 355 | 0.0 | 0.0 | 0.00 | 0.15 | 0.14 | 62 | 1008.5 |
| 20260508012324 | 51 | 355 | 0.0 | 0.0 | 0.00 | 0.15 | 0.14 | 60 | 1008.6 |
| 20260508011821 | 52 | 355 | 0.0 | 0.0 | 0.00 | 0.15 | 0.14 | 58 | 1008.6 |
| 20260508011317 | 52 | 355 | 0.0 | 0.0 | 0.00 | 0.15 | 0.14 | 58 | 1008.6 |
| 20260508010813 | 52 | 355 | 0.0 | 0.0 | 0.00 | 0.15 | 0.14 | 58 | 1008.5 |
| 20260508010330 | 52 | 355 | 0.0 | 0.0 | 0.00 | 0.15 | 0.14 | 57 | 1008.5 |
| 20260508005824 | 52 | 355 | 0.0 | 0.0 | 0.00 | 0.16 | 0.14 | 58 | 1008.4 |
| 20260508005320 | 52 | 355 | 0.0 | 0.0 | 0.00 | 0.16 | 0.14 | 57 | 1008.4 |
| 20260508004820 | 52 | 355 | 0.0 | 0.0 | 0.00 | 0.16 | 0.14 | 57 | 1008.3 |
| 20260508004315 | 52 | 355 | 0.0 | 0.0 | 0.00 | 0.16 | 0.14 | 56 | 1008.3 |
| 20260508003811 | 53 | 355 | 0.0 | 0.0 | 0.00 | 0.16 | 0.14 | 55 | 1008.3 |
| 20260508003327 | 53 | 355 | 0.0 | 0.0 | 0.00 | 0.16 | 0.14 | 54 | 1008.2 |
| 20260508002823 | 53 | 355 | 0.0 | 0.0 | 0.00 | 0.16 | 0.14 | 53 | 1008.3 |
| 20260508002320 | 54 | 355 | 0.0 | 0.0 | 0.00 | 0.16 | 0.14 | 54 | 1008.2 |
| 20260508001816 | 54 | 355 | 0.0 | 0.0 | 0.00 | 0.16 | 0.14 | 52 | 1008.1 |
| 20260508001315 | 55 | 355 | 0.0 | 0.0 | 0.00 | 0.16 | 0.14 | 51 | 1008.0 |
| 20260508000811 | 56 | 355 | 0.0 | 0.0 | 0.00 | 0.16 | 0.14 | 49 | 1008.0 |
| 20260508000328 | 56 | 355 | 0.0 | 0.0 | 0.00 | 0.16 | 0.14 | 46 | 1007.9 |
| 20260507235823 | 57 | 355 | 0.0 | 0.0 | 0.00 | 0.16 | 0.14 | 45 | 1007.8 |
| 20260507235320 | 57 | 355 | 0.0 | 2.0 | 0.00 | 0.16 | 0.14 | 45 | 1007.7 |
| 20260507234815 | 58 | 355 | 0.0 | 4.0 | 0.00 | 0.16 | 0.14 | 45 | 1007.7 |
| 20260507234330 | 58 | 360 | 1.0 | 4.0 | 0.00 | 0.16 | 0.14 | 43 | 1007.7 |
| 20260507233830 | 58 | 5 | 2.0 | 4.0 | 0.00 | 0.16 | 0.14 | 45 | 1007.8 |
| 20260507233327 | 59 | 340 | 2.0 | 6.0 | 0.00 | 0.16 | 0.14 | 43 | 1007.8 |
| 20260507232822 | 59 | 355 | 2.0 | 6.0 | 0.00 | 0.16 | 0.14 | 42 | 1007.7 |
| 20260507232319 | 59 | 329 | 2.0 | 8.0 | 0.00 | 0.16 | 0.14 | 42 | 1007.6 |
| 20260507231815 | 59 | 331 | 2.0 | 4.0 | 0.00 | 0.16 | 0.14 | 40 | 1007.5 |
| 20260507231330 | 59 | 11 | 0.0 | 5.0 | 0.00 | 0.16 | 0.14 | 41 | 1007.4 |
| 20260507230827 | 59 | 13 | 1.0 | 5.0 | 0.00 | 0.16 | 0.14 | 41 | 1007.5 |
| 20260507230327 | 60 | 5 | 1.0 | 4.0 | 0.00 | 0.16 | 0.14 | 41 | 1007.3 |
| 20260507225823 | 60 | 273 | 0.0 | 5.0 | 0.00 | 0.16 | 0.14 | 40 | 1007.5 |
| 20260507225320 | 60 | 350 | 1.0 | 4.0 | 0.00 | 0.16 | 0.14 | 39 | 1007.3 |
| 20260507224816 | 60 | 96 | 1.0 | 4.0 | 0.00 | 0.16 | 0.14 | 42 | 1007.5 |
| 20260507224331 | 60 | 5 | 2.0 | 8.0 | 0.00 | 0.16 | 0.14 | 37 | 1007.3 |
| 20260507223827 | 60 | 9 | 4.0 | 8.0 | 0.00 | 0.16 | 0.14 | 41 | 1007.3 |
| 20260507223324 | 60 | 57 | 3.0 | 8.0 | 0.00 | 0.16 | 0.14 | 40 | 1007.3 |
| 20260507222823 | 61 | 355 | 2.0 | 5.0 | 0.00 | 0.16 | 0.14 | 40 | 1007.4 |
| 20260507222320 | 61 | 311 | 2.0 | 5.0 | 0.00 | 0.16 | 0.14 | 37 | 1007.4 |
| 20260507221817 | 60 | 346 | 1.0 | 5.0 | 0.00 | 0.16 | 0.14 | 39 | 1007.4 |
| 20260507221312 | 60 | 251 | 1.0 | 5.0 | 0.00 | 0.16 | 0.14 | 39 | 1007.4 |
| 20260507220828 | 60 | 5 | 1.0 | 6.0 | 0.00 | 0.16 | 0.14 | 40 | 1007.5 |
| 20260507220325 | 60 | 348 | 2.0 | 6.0 | 0.00 | 0.16 | 0.14 | 37 | 1007.4 |
| 20260507215820 | 60 | 5 | 3.0 | 6.0 | 0.00 | 0.16 | 0.14 | 37 | 1007.5 |
| 20260507215321 | 60 | 38 | 3.0 | 6.0 | 0.00 | 0.16 | 0.14 | 37 | 1007.6 |
| 20260507214818 | 61 | 360 | 3.0 | 9.0 | 0.00 | 0.16 | 0.14 | 36 | 1007.6 |
| 20260507214314 | 61 | 10 | 5.0 | 10.0 | 0.00 | 0.16 | 0.14 | 36 | 1007.5 |
| 20260507213830 | 61 | 335 | 5.0 | 11.0 | 0.00 | 0.16 | 0.14 | 37 | 1007.6 |
| 20260507213327 | 61 | 329 | 6.0 | 13.0 | 0.00 | 0.16 | 0.14 | 37 | 1007.5 |
| 20260507212822 | 61 | 27 | 5.0 | 13.0 | 0.00 | 0.16 | 0.14 | 39 | 1007.5 |
| 20260507212318 | 61 | 12 | 4.0 | 12.0 | 0.00 | 0.16 | 0.14 | 39 | 1007.4 |
| 20260507211818 | 61 | 336 | 6.0 | 12.0 | 0.00 | 0.16 | 0.14 | 39 | 1007.4 |
| 20260507211315 | 61 | 5 | 4.0 | 10.0 | 0.00 | 0.16 | 0.14 | 38 | 1007.4 |
| 20260507210811 | 62 | 340 | 5.0 | 14.0 | 0.00 | 0.16 | 0.14 | 35 | 1007.4 |
| 20260507210328 | 62 | 19 | 6.0 | 14.0 | 0.00 | 0.16 | 0.14 | 37 | 1007.4 |
| 20260507205823 | 62 | 315 | 4.0 | 10.0 | 0.00 | 0.16 | 0.14 | 36 | 1007.3 |
| 20260507205319 | 62 | 23 | 5.0 | 11.0 | 0.00 | 0.16 | 0.14 | 37 | 1007.2 |
| 20260507204816 | 62 | 5 | 5.0 | 12.0 | 0.00 | 0.16 | 0.14 | 38 | 1007.2 |
| 20260507204316 | 61 | 21 | 3.0 | 12.0 | 0.00 | 0.16 | 0.14 | 37 | 1007.1 |
| 20260507203812 | 61 | 328 | 7.0 | 12.0 | 0.00 | 0.16 | 0.14 | 36 | 1007.2 |
| 20260507203329 | 61 | 79 | 6.0 | 11.0 | 0.00 | 0.16 | 0.14 | 38 | 1007.3 |
| 20260507202825 | 62 | 57 | 4.0 | 13.0 | 0.00 | 0.16 | 0.14 | 38 | 1007.4 |
| 20260507202321 | 62 | 326 | 7.0 | 13.0 | 0.00 | 0.16 | 0.14 | 38 | 1007.3 |
| 20260507201818 | 62 | 13 | 2.0 | 10.0 | 0.00 | 0.16 | 0.14 | 38 | 1007.2 |
| 20260507201312 | 62 | 333 | 2.0 | 11.0 | 0.00 | 0.16 | 0.14 | 35 | 1007.2 |
| 20260507200812 | 62 | 220 | 4.0 | 11.0 | 0.00 | 0.16 | 0.14 | 40 | 1007.2 |
| 20260507200329 | 62 | 338 | 4.0 | 13.0 | 0.00 | 0.16 | 0.14 | 36 | 1007.2 |
| 20260507195824 | 62 | 246 | 4.0 | 13.0 | 0.00 | 0.18 | 0.14 | 39 | 1007.2 |
| 20260507195320 | 62 | 355 | 4.0 | 10.0 | 0.00 | 0.18 | 0.14 | 36 | 1007.2 |
| 20260507194817 | 62 | 5 | 3.0 | 11.0 | 0.00 | 0.18 | 0.14 | 37 | 1007.2 |
| 20260507194312 | 61 | 256 | 5.0 | 11.0 | 0.00 | 0.18 | 0.14 | 36 | 1007.3 |
| 20260507193828 | 62 | 350 | 7.0 | 13.0 | 0.00 | 0.18 | 0.14 | 37 | 1007.5 |
| 20260507193324 | 62 | 326 | 6.0 | 14.0 | 0.00 | 0.18 | 0.14 | 36 | 1007.5 |
| 20260507192824 | 62 | 22 | 6.0 | 14.0 | 0.00 | 0.18 | 0.14 | 38 | 1007.4 |
| 20260507192320 | 62 | 322 | 4.0 | 12.0 | 0.00 | 0.18 | 0.14 | 37 | 1007.5 |
| 20260507191817 | 62 | 340 | 4.0 | 14.0 | 0.00 | 0.18 | 0.14 | 37 | 1007.8 |
| 20260507191313 | 62 | 340 | 6.0 | 14.0 | 0.00 | 0.18 | 0.14 | 38 | 1007.8 |
| 20260507190829 | 62 | 327 | 4.0 | 13.0 | 0.00 | 0.18 | 0.14 | 36 | 1007.7 |
| 20260507190326 | 62 | 40 | 2.0 | 9.0 | 0.00 | 0.18 | 0.14 | 41 | 1008.0 |
| 20260507185821 | 61 | 38 | 4.0 | 9.0 | 0.00 | 0.19 | 0.14 | 42 | 1008.0 |
| 20260507185322 | 60 | 296 | 3.0 | 11.0 | 0.00 | 0.19 | 0.14 | 41 | 1008.0 |
| 20260507184818 | 60 | 360 | 3.0 | 11.0 | 0.00 | 0.19 | 0.14 | 39 | 1008.0 |
| 20260507184313 | 60 | 290 | 2.0 | 9.0 | 0.00 | 0.19 | 0.14 | 38 | 1008.0 |
| 20260507183830 | 60 | 325 | 3.0 | 13.0 | 0.00 | 0.19 | 0.14 | 38 | 1008.1 |
| 20260507183326 | 61 | 355 | 6.0 | 13.0 | 0.00 | 0.19 | 0.14 | 40 | 1008.2 |
| 20260507182822 | 62 | 5 | 5.0 | 10.0 | 0.00 | 0.19 | 0.14 | 40 | 1008.2 |
| 20260507182318 | 61 | 19 | 4.0 | 10.0 | 0.00 | 0.19 | 0.14 | 41 | 1008.3 |
| 20260507181819 | 61 | 360 | 2.0 | 8.0 | 0.00 | 0.19 | 0.14 | 38 | 1008.3 |
| 20260507181314 | 61 | 336 | 3.0 | 8.0 | 0.00 | 0.19 | 0.14 | 38 | 1008.4 |
| 20260507180829 | 61 | 265 | 1.0 | 11.0 | 0.00 | 0.19 | 0.14 | 39 | 1008.4 |
| 20260507180326 | 60 | 53 | 3.0 | 12.0 | 0.00 | 0.19 | 0.14 | 42 | 1008.5 |
| 20260507175821 | 59 | 355 | 8.0 | 12.0 | 0.00 | 0.21 | 0.14 | 40 | 1008.6 |
| 20260507175318 | 60 | 57 | 3.0 | 11.0 | 0.00 | 0.21 | 0.14 | 40 | 1008.4 |
| 20260507174814 | 59 | 360 | 1.0 | 12.0 | 0.00 | 0.21 | 0.14 | 44 | 1008.5 |
| 20260507174313 | 59 | 29 | 2.0 | 16.0 | 0.00 | 0.21 | 0.14 | 40 | 1008.7 |
| 20260507173830 | 60 | 329 | 5.0 | 16.0 | 0.00 | 0.21 | 0.14 | 41 | 1008.7 |
| 20260507173327 | 59 | 338 | 2.0 | 14.0 | 0.00 | 0.21 | 0.14 | 39 | 1008.8 |
| 20260507172822 | 59 | 303 | 4.0 | 12.0 | 0.00 | 0.21 | 0.14 | 41 | 1008.9 |
| 20260507172319 | 59 | 316 | 1.0 | 10.0 | 0.00 | 0.21 | 0.14 | 39 | 1009.0 |
| 20260507171816 | 60 | 341 | 3.0 | 12.0 | 0.00 | 0.21 | 0.14 | 38 | 1009.1 |
| 20260507171330 | 59 | 281 | 3.0 | 14.0 | 0.00 | 0.21 | 0.14 | 39 | 1009.1 |
| 20260507170830 | 58 | 360 | 3.0 | 14.0 | 0.00 | 0.21 | 0.14 | 39 | 1009.4 |
| 20260507170326 | 58 | 41 | 6.0 | 14.0 | 0.00 | 0.21 | 0.14 | 39 | 1009.4 |
| 20260507165822 | 59 | 355 | 4.0 | 11.0 | 0.00 | 0.26 | 0.14 | 41 | 1009.3 |
| 20260507165339 | 59 | 355 | 6.0 | 14.0 | 0.00 | 0.26 | 0.14 | 39 | 1009.5 |
| 20260507164835 | 59 | 315 | 3.0 | 15.0 | 0.00 | 0.26 | 0.14 | 41 | 1009.6 |
| 20260507164329 | 58 | 331 | 6.0 | 15.0 | 0.00 | 0.26 | 0.14 | 42 | 1009.6 |
| 20260507163825 | 58 | 17 | 3.0 | 10.0 | 0.00 | 0.26 | 0.14 | 41 | 1009.7 |
| 20260507163322 | 58 | 360 | 3.0 | 11.0 | 0.00 | 0.26 | 0.14 | 42 | 1009.7 |
| 20260507162821 | 58 | 355 | 2.0 | 11.0 | 0.00 | 0.26 | 0.14 | 43 | 1009.7 |
| 20260507162317 | 58 | 355 | 4.0 | 11.0 | 0.00 | 0.26 | 0.14 | 43 | 1009.8 |
| 20260507161814 | 58 | 334 | 3.0 | 11.0 | 0.00 | 0.26 | 0.14 | 43 | 1009.9 |
| 20260507161328 | 58 | 351 | 4.0 | 11.0 | 0.00 | 0.26 | 0.14 | 43 | 1009.9 |
| 20260507160824 | 58 | 342 | 7.0 | 13.0 | 0.00 | 0.26 | 0.14 | 41 | 1010.1 |
| 20260507160341 | 57 | 87 | 3.0 | 13.0 | 0.00 | 0.26 | 0.14 | 41 | 1010.0 |
| 20260507155816 | 57 | 337 | 4.0 | 12.0 | 0.00 | 0.28 | 0.14 | 42 | 1010.0 |
| 20260507155312 | 57 | 18 | 3.0 | 10.0 | 0.00 | 0.28 | 0.14 | 45 | 1010.1 |
| 20260507154812 | 57 | 351 | 4.0 | 10.0 | 0.00 | 0.28 | 0.14 | 43 | 1010.1 |
| 20260507154349 | 57 | 16 | 3.0 | 11.0 | 0.00 | 0.28 | 0.14 | 46 | 1010.2 |
| 20260507153824 | 57 | 13 | 3.0 | 11.0 | 0.00 | 0.28 | 0.14 | 45 | 1010.2 |
| 20260507153321 | 57 | 306 | 5.0 | 9.0 | 0.00 | 0.28 | 0.14 | 41 | 1010.3 |
| 20260507152818 | 57 | 300 | 2.0 | 13.0 | 0.00 | 0.28 | 0.14 | 44 | 1010.4 |
| 20260507152314 | 56 | 247 | 4.0 | 9.0 | 0.00 | 0.28 | 0.14 | 44 | 1010.5 |
| 20260507151811 | 56 | 355 | 4.0 | 13.0 | 0.00 | 0.28 | 0.14 | 46 | 1010.5 |
| 20260507151312 | 56 | 309 | 7.0 | 13.0 | 0.00 | 0.28 | 0.14 | 46 | 1010.6 |
| 20260507150828 | 56 | 350 | 4.0 | 12.0 | 0.00 | 0.28 | 0.14 | 44 | 1010.6 |
| 20260507150325 | 56 | 321 | 3.0 | 9.0 | 0.00 | 0.28 | 0.14 | 45 | 1010.6 |
| 20260507145821 | 56 | 21 | 3.0 | 9.0 | 0.00 | 0.28 | 0.14 | 49 | 1010.7 |
| 20260507145317 | 55 | 50 | 4.0 | 9.0 | 0.00 | 0.28 | 0.14 | 50 | 1010.7 |
| 20260507144813 | 55 | 75 | 3.0 | 14.0 | 0.00 | 0.28 | 0.14 | 55 | 1010.6 |
| 20260507144329 | 55 | 330 | 3.0 | 14.0 | 0.00 | 0.28 | 0.14 | 53 | 1010.7 |
| 20260507143826 | 55 | 355 | 3.0 | 10.0 | 0.00 | 0.28 | 0.14 | 53 | 1010.8 |
| 20260507143325 | 55 | 335 | 4.0 | 12.0 | 0.00 | 0.28 | 0.14 | 53 | 1010.7 |
| 20260507142820 | 55 | 308 | 3.0 | 13.0 | 0.00 | 0.28 | 0.14 | 52 | 1010.7 |
| 20260507142318 | 54 | 355 | 5.0 | 13.0 | 0.00 | 0.28 | 0.14 | 54 | 1010.8 |
| 20260507141815 | 54 | 5 | 2.0 | 12.0 | 0.00 | 0.28 | 0.14 | 55 | 1010.7 |
| 20260507141329 | 54 | 321 | 7.0 | 13.0 | 0.00 | 0.28 | 0.14 | 53 | 1010.9 |
| 20260507140825 | 53 | 348 | 6.0 | 13.0 | 0.00 | 0.28 | 0.14 | 55 | 1010.9 |
| 20260507140322 | 53 | 331 | 3.0 | 11.0 | 0.00 | 0.28 | 0.14 | 55 | 1010.8 |
| 20260507135822 | 53 | 74 | 6.0 | 12.0 | 0.00 | 0.28 | 0.14 | 56 | 1011.0 |
| 20260507135319 | 53 | 55 | 5.0 | 12.0 | 0.00 | 0.28 | 0.14 | 58 | 1010.9 |
| 20260507134815 | 53 | 347 | 4.0 | 11.0 | 0.00 | 0.28 | 0.14 | 59 | 1010.9 |
| 20260507134330 | 53 | 267 | 5.0 | 14.0 | 0.00 | 0.28 | 0.14 | 61 | 1010.9 |
| 20260507133826 | 53 | 338 | 6.0 | 12.0 | 0.00 | 0.28 | 0.14 | 59 | 1010.9 |
| 20260507133323 | 52 | 22 | 5.0 | 13.0 | 0.00 | 0.28 | 0.14 | 62 | 1010.9 |
| 20260507132818 | 52 | 49 | 5.0 | 13.0 | 0.00 | 0.28 | 0.14 | 64 | 1010.9 |
| 20260507132319 | 52 | 78 | 4.0 | 8.0 | 0.00 | 0.28 | 0.14 | 64 | 1010.9 |
| 20260507131815 | 51 | 294 | 3.0 | 9.0 | 0.00 | 0.28 | 0.14 | 67 | 1010.9 |
| 20260507131329 | 51 | 344 | 3.0 | 11.0 | 0.00 | 0.28 | 0.14 | 65 | 1010.7 |
| 20260507130825 | 51 | 344 | 4.0 | 11.0 | 0.00 | 0.28 | 0.14 | 66 | 1010.9 |
| 20260507130322 | 51 | 300 | 4.0 | 10.0 | 0.00 | 0.28 | 0.14 | 65 | 1010.8 |
| 20260507125819 | 51 | 325 | 3.0 | 11.0 | 0.00 | 0.28 | 0.14 | 68 | 1010.8 |
| 20260507125315 | 50 | 342 | 5.0 | 11.0 | 0.00 | 0.28 | 0.14 | 68 | 1010.7 |
| 20260507124815 | 51 | 9 | 3.0 | 10.0 | 0.00 | 0.28 | 0.14 | 73 | 1010.4 |
| 20260507124330 | 50 | 324 | 4.0 | 9.0 | 0.00 | 0.28 | 0.14 | 71 | 1010.6 |
| 20260507123826 | 50 | 22 | 2.0 | 11.0 | 0.00 | 0.28 | 0.14 | 72 | 1010.7 |
| 20260507123323 | 50 | 338 | 5.0 | 12.0 | 0.00 | 0.28 | 0.14 | 73 | 1010.6 |
| 20260507122817 | 50 | 304 | 3.0 | 12.0 | 0.00 | 0.28 | 0.14 | 73 | 1010.6 |
| 20260507122314 | 50 | 31 | 5.0 | 9.0 | 0.00 | 0.28 | 0.14 | 74 | 1010.7 |
| 20260507121830 | 50 | 57 | 3.0 | 8.0 | 0.00 | 0.28 | 0.14 | 77 | 1010.6 |
| 20260507121329 | 49 | 327 | 4.0 | 8.0 | 0.00 | 0.28 | 0.14 | 78 | 1010.7 |
| 20260507120825 | 49 | 290 | 1.0 | 9.0 | 0.00 | 0.28 | 0.14 | 78 | 1010.7 |
| 20260507120322 | 49 | 333 | 4.0 | 8.0 | 0.00 | 0.28 | 0.14 | 80 | 1010.6 |
| 20260507115818 | 49 | 314 | 2.0 | 8.0 | 0.00 | 0.28 | 0.14 | 81 | 1010.5 |
| 20260507115315 | 48 | 334 | 4.0 | 8.0 | 0.00 | 0.28 | 0.14 | 82 | 1010.7 |
| 20260507114811 | 48 | 302 | 4.0 | 11.0 | 0.00 | 0.28 | 0.14 | 82 | 1010.7 |
| 20260507114327 | 48 | 330 | 4.0 | 11.0 | 0.00 | 0.28 | 0.14 | 83 | 1010.6 |
| 20260507113828 | 48 | 321 | 4.0 | 9.0 | 0.00 | 0.28 | 0.14 | 83 | 1010.6 |
| 20260507113325 | 48 | 10 | 3.0 | 10.0 | 0.00 | 0.28 | 0.14 | 83 | 1010.5 |
| 20260507112821 | 48 | 314 | 3.0 | 10.0 | 0.00 | 0.28 | 0.14 | 83 | 1010.3 |
| 20260507112317 | 48 | 298 | 2.0 | 6.0 | 0.00 | 0.28 | 0.14 | 83 | 1010.3 |
| 20260507111813 | 48 | 310 | 3.0 | 7.0 | 0.00 | 0.28 | 0.14 | 84 | 1010.3 |
| 20260507111329 | 48 | 355 | 3.0 | 8.0 | 0.00 | 0.28 | 0.14 | 84 | 1010.2 |
| 20260507110826 | 48 | 322 | 4.0 | 8.0 | 0.00 | 0.28 | 0.14 | 84 | 1010.0 |
| 20260507110326 | 48 | 355 | 3.0 | 8.0 | 0.00 | 0.28 | 0.14 | 84 | 1010.2 |
| 20260507105822 | 48 | 327 | 2.0 | 8.0 | 0.00 | 0.28 | 0.14 | 85 | 1010.2 |
| 20260507105319 | 48 | 299 | 3.0 | 6.0 | 0.00 | 0.28 | 0.14 | 85 | 1010.1 |
| 20260507104815 | 48 | 336 | 2.0 | 5.0 | 0.00 | 0.28 | 0.14 | 85 | 1010.0 |
| 20260507104311 | 48 | 319 | 2.0 | 5.0 | 0.00 | 0.28 | 0.14 | 86 | 1010.0 |
| 20260507103827 | 48 | 339 | 2.0 | 6.0 | 0.00 | 0.28 | 0.14 | 86 | 1010.0 |
| 20260507103324 | 47 | 314 | 2.0 | 6.0 | 0.00 | 0.28 | 0.14 | 86 | 1009.8 |
| 20260507102823 | 48 | 298 | 3.0 | 5.0 | 0.00 | 0.28 | 0.14 | 87 | 1009.8 |
| 20260507102319 | 47 | 325 | 2.0 | 6.0 | 0.00 | 0.28 | 0.14 | 87 | 1009.7 |
| 20260507101816 | 47 | 296 | 3.0 | 6.0 | 0.00 | 0.28 | 0.14 | 88 | 1009.6 |
| 20260507101312 | 47 | 323 | 3.0 | 8.0 | 0.00 | 0.28 | 0.14 | 88 | 1009.5 |
| 20260507100828 | 47 | 250 | 3.0 | 8.0 | 0.00 | 0.28 | 0.14 | 88 | 1009.6 |
| 20260507100325 | 47 | 297 | 3.0 | 5.0 | 0.00 | 0.28 | 0.14 | 88 | 1009.6 |
| 20260507095821 | 47 | 325 | 0.0 | 5.0 | 0.00 | 0.28 | 0.14 | 88 | 1009.4 |
| 20260507095321 | 47 | 324 | 3.0 | 6.0 | 0.00 | 0.28 | 0.14 | 88 | 1009.4 |
| 20260507094817 | 47 | 303 | 3.0 | 6.0 | 0.00 | 0.28 | 0.14 | 88 | 1009.3 |
| 20260507094313 | 47 | 267 | 1.0 | 4.0 | 0.00 | 0.28 | 0.14 | 88 | 1009.2 |
| 20260507093828 | 48 | 355 | 1.0 | 4.0 | 0.00 | 0.28 | 0.14 | 88 | 1009.2 |
| 20260507093325 | 47 | 321 | 1.0 | 5.0 | 0.00 | 0.28 | 0.14 | 88 | 1009.4 |
| 20260507092821 | 47 | 330 | 3.0 | 6.0 | 0.00 | 0.28 | 0.14 | 88 | 1009.4 |
| 20260507092317 | 47 | 283 | 2.0 | 4.0 | 0.00 | 0.28 | 0.14 | 88 | 1009.2 |
| 20260507091817 | 47 | 268 | 0.0 | 5.0 | 0.00 | 0.28 | 0.14 | 88 | 1009.4 |
| 20260507091312 | 47 | 331 | 2.0 | 5.0 | 0.00 | 0.28 | 0.14 | 88 | 1009.1 |
| 20260507090828 | 48 | 28 | 0.0 | 4.0 | 0.00 | 0.28 | 0.14 | 89 | 1009.2 |
| 20260507090325 | 48 | 300 | 1.0 | 5.0 | 0.00 | 0.28 | 0.14 | 88 | 1009.4 |
| 20260507085820 | 48 | 311 | 3.0 | 5.0 | 0.00 | 0.28 | 0.14 | 88 | 1009.3 |
| 20260507085318 | 48 | 292 | 2.0 | 5.0 | 0.00 | 0.28 | 0.14 | 88 | 1009.4 |
| 20260507084813 | 48 | 351 | 2.0 | 5.0 | 0.00 | 0.28 | 0.14 | 89 | 1009.4 |
| 20260507084313 | 48 | 301 | 1.0 | 5.0 | 0.00 | 0.28 | 0.14 | 89 | 1009.4 |
| 20260507083829 | 48 | 38 | 0.0 | 4.0 | 0.00 | 0.28 | 0.14 | 89 | 1009.4 |
| 20260507083326 | 48 | 230 | 1.0 | 6.0 | 0.00 | 0.28 | 0.14 | 89 | 1009.3 |
| 20260507082822 | 48 | 321 | 2.0 | 8.0 | 0.01 | 0.28 | 0.14 | 90 | 1009.3 |
| 20260507082319 | 48 | 317 | 1.0 | 8.0 | 0.01 | 0.28 | 0.14 | 89 | 1009.5 |
| 20260507081815 | 48 | 341 | 2.0 | 5.0 | 0.01 | 0.28 | 0.14 | 90 | 1009.4 |
| 20260507081311 | 48 | 334 | 3.0 | 6.0 | 0.01 | 0.28 | 0.14 | 90 | 1009.1 |
| 20260507080811 | 48 | 282 | 1.0 | 8.0 | 0.01 | 0.28 | 0.14 | 90 | 1009.5 |
| 20260507080328 | 48 | 293 | 1.0 | 8.0 | 0.01 | 0.28 | 0.14 | 90 | 1009.4 |
| 20260507075824 | 48 | 306 | 1.0 | 5.0 | 0.01 | 0.28 | 0.14 | 90 | 1009.4 |
| 20260507075321 | 48 | 323 | 1.0 | 8.0 | 0.02 | 0.28 | 0.14 | 90 | 1009.6 |
| 20260507074817 | 48 | 323 | 2.0 | 8.0 | 0.02 | 0.28 | 0.14 | 90 | 1009.6 |
| 20260507074312 | 48 | 261 | 3.0 | 8.0 | 0.03 | 0.28 | 0.14 | 90 | 1009.4 |
| 20260507073828 | 48 | 315 | 4.0 | 8.0 | 0.03 | 0.28 | 0.14 | 90 | 1009.5 |
| 20260507073325 | 48 | 281 | 1.0 | 6.0 | 0.04 | 0.28 | 0.14 | 90 | 1009.9 |
| 20260507072823 | 48 | 302 | 1.0 | 4.0 | 0.04 | 0.27 | 0.13 | 90 | 1009.6 |
| 20260507072320 | 48 | 360 | 1.0 | 6.0 | 0.06 | 0.27 | 0.13 | 91 | 1009.5 |
| 20260507071817 | 48 | 316 | 3.0 | 6.0 | 0.06 | 0.27 | 0.13 | 90 | 1009.8 |
| 20260507071313 | 49 | 34 | 1.0 | 4.0 | 0.07 | 0.27 | 0.13 | 90 | 1009.4 |
| 20260507070828 | 49 | 290 | 2.0 | 4.0 | 0.08 | 0.27 | 0.13 | 90 | 1009.5 |
| 20260507070324 | 49 | 327 | 2.0 | 6.0 | 0.08 | 0.27 | 0.13 | 90 | 1009.5 |
| 20260507065819 | 49 | 360 | 0.0 | 6.0 | 0.09 | 0.27 | 0.13 | 90 | 1009.7 |
| 20260507065321 | 49 | 342 | 3.0 | 6.0 | 0.09 | 0.26 | 0.12 | 90 | 1009.7 |
| 20260507064817 | 49 | 343 | 3.0 | 7.0 | 0.09 | 0.26 | 0.12 | 90 | 1009.7 |
| 20260507064313 | 49 | 341 | 1.0 | 3.0 | 0.09 | 0.25 | 0.11 | 90 | 1009.2 |
| 20260507063829 | 49 | 284 | 0.0 | 4.0 | 0.09 | 0.25 | 0.11 | 90 | 1009.7 |
| 20260507063326 | 49 | 264 | 2.0 | 6.0 | 0.08 | 0.24 | 0.10 | 89 | 1009.0 |
| 20260507062821 | 49 | 333 | 3.0 | 6.0 | 0.07 | 0.23 | 0.09 | 90 | 1009.0 |
| 20260507062317 | 49 | 295 | 2.0 | 4.0 | 0.05 | 0.21 | 0.07 | 89 | 1009.5 |
| 20260507061818 | 49 | 326 | 1.0 | 4.0 | 0.05 | 0.21 | 0.07 | 89 | 1009.4 |
| 20260507061314 | 50 | 324 | 1.0 | 5.0 | 0.05 | 0.20 | 0.06 | 89 | 1009.3 |
| 20260507060830 | 50 | 272 | 1.0 | 5.0 | 0.05 | 0.19 | 0.05 | 89 | 1009.2 |
| 20260507060327 | 50 | 331 | 1.0 | 5.0 | 0.05 | 0.19 | 0.05 | 88 | 1009.1 |
| 20260507055822 | 50 | 296 | 2.0 | 5.0 | 0.04 | 0.18 | 0.04 | 88 | 1009.6 |
| 20260507055318 | 50 | 360 | 2.0 | 4.0 | 0.03 | 0.17 | 0.03 | 88 | 1008.9 |
| 20260507054815 | 50 | 251 | 1.0 | 5.0 | 0.03 | 0.17 | 0.03 | 87 | 1009.1 |
| 20260507054314 | 50 | 275 | 1.0 | 5.0 | 0.02 | 0.16 | 0.02 | 87 | 1009.1 |
| 20260507053830 | 50 | 319 | 2.0 | 6.0 | 0.02 | 0.16 | 0.02 | 87 | 1008.8 |
| 20260507053327 | 51 | 346 | 1.0 | 6.0 | 0.02 | 0.16 | 0.02 | 87 | 1008.7 |
| 20260507052823 | 51 | 278 | 1.0 | 6.0 | 0.02 | 0.16 | 0.02 | 86 | 1008.6 |
| 20260507052318 | 51 | 19 | 2.0 | 5.0 | 0.02 | 0.16 | 0.02 | 85 | 1008.6 |
| 20260507051815 | 51 | 282 | 1.0 | 10.0 | 0.02 | 0.16 | 0.02 | 84 | 1008.3 |
| 20260507051311 | 52 | 355 | 2.0 | 8.0 | 0.00 | 0.14 | 0.00 | 84 | 1008.5 |
| 20260507050811 | 52 | 329 | 3.0 | 8.0 | 0.00 | 0.14 | 0.00 | 82 | 1008.7 |
| 20260507050328 | 52 | 277 | 4.0 | 9.0 | 0.00 | 0.14 | 0.00 | 82 | 1008.7 |
| 20260507045822 | 52 | 350 | 5.0 | 12.0 | 0.00 | 0.14 | 0.00 | 81 | 1008.5 |
| 20260507045320 | 52 | 321 | 5.0 | 12.0 | 0.00 | 0.14 | 0.00 | 80 | 1008.7 |
| 20260507044816 | 53 | 323 | 4.0 | 12.0 | 0.00 | 0.14 | 0.00 | 80 | 1008.7 |
| 20260507044312 | 53 | 344 | 4.0 | 11.0 | 0.00 | 0.14 | 0.00 | 80 | 1008.9 |
| 20260507043828 | 53 | 327 | 4.0 | 11.0 | 0.00 | 0.14 | 0.00 | 80 | 1008.8 |
| 20260507043329 | 53 | 316 | 1.0 | 9.0 | 0.00 | 0.14 | 0.00 | 80 | 1008.8 |
| 20260507042826 | 53 | 343 | 3.0 | 9.0 | 0.00 | 0.14 | 0.00 | 79 | 1008.7 |
| 20260507042322 | 53 | 11 | 1.0 | 6.0 | 0.00 | 0.14 | 0.00 | 80 | 1008.8 |
| 20260507041818 | 53 | 15 | 2.0 | 6.0 | 0.00 | 0.14 | 0.00 | 79 | 1008.9 |
| 20260507041314 | 53 | 327 | 1.0 | 6.0 | 0.00 | 0.14 | 0.00 | 80 | 1008.8 |
| 20260507040830 | 53 | 330 | 1.0 | 6.0 | 0.00 | 0.14 | 0.00 | 79 | 1008.8 |
| 20260507040327 | 53 | 5 | 2.0 | 8.0 | 0.00 | 0.14 | 0.00 | 79 | 1008.9 |